Year,Month,Day,Hour,Minute,Value (Times are PST for windgust in km/hr)
2012,10,17,00,00,22.50
2012,10,17,00,01,24.20
2012,10,17,00,02,19.30
2012,10,17,00,03,25.70
2012,10,17,00,04,27.40
2012,10,17,00,05,27.40
2012,10,17,00,06,22.50
2012,10,17,00,07,25.70
2012,10,17,00,08,25.70
2012,10,17,00,09,24.20
2012,10,17,00,10,16.10
2012,10,17,00,11,25.70
2012,10,17,00,12,24.20
2012,10,17,00,13,22.50
2012,10,17,00,14,29.00
2012,10,17,00,15,17.70
2012,10,17,00,16,19.30
2012,10,17,00,17,25.70
2012,10,17,00,18,19.30
2012,10,17,00,19,19.30
2012,10,17,00,20,14.50
2012,10,17,00,21,17.70
2012,10,17,00,22,12.90
2012,10,17,00,23,24.20
2012,10,17,00,24,17.70
2012,10,17,00,25,14.50
2012,10,17,00,26,20.90
2012,10,17,00,27,17.70
2012,10,17,00,28,24.20
2012,10,17,00,29,17.70
2012,10,17,00,30,17.70
2012,10,17,00,31,25.70
2012,10,17,00,32,19.30
2012,10,17,00,33,19.30
2012,10,17,00,34,19.30
2012,10,17,00,35,17.70
2012,10,17,00,36,17.70
2012,10,17,00,37,16.10
2012,10,17,00,38,19.30
2012,10,17,00,39,16.10
2012,10,17,00,40,17.70
2012,10,17,00,41,9.60
2012,10,17,00,42,16.10
2012,10,17,00,43,20.90
2012,10,17,00,44,16.10
2012,10,17,00,45,19.30
2012,10,17,00,46,20.90
2012,10,17,00,47,6.40
2012,10,17,00,48,17.70
2012,10,17,00,49,11.30
2012,10,17,00,50,12.90
2012,10,17,00,51,9.60
2012,10,17,00,52,19.30
2012,10,17,00,53,17.70
2012,10,17,00,54,17.70
2012,10,17,00,55,11.30
2012,10,17,00,56,9.60
2012,10,17,00,57,3.20
2012,10,17,00,58,6.40
2012,10,17,00,59,4.80
2012,10,17,01,00,6.40
2012,10,17,01,01,6.40
2012,10,17,01,02,9.60
2012,10,17,01,03,8.10
2012,10,17,01,04,4.80
2012,10,17,01,05,9.60
2012,10,17,01,06,8.10
2012,10,17,01,07,8.10
2012,10,17,01,08,6.40
2012,10,17,01,09,1.60
2012,10,17,01,10,6.40
2012,10,17,01,11,4.80
2012,10,17,01,12,4.80
2012,10,17,01,13,6.40
2012,10,17,01,14,1.60
2012,10,17,01,15,1.60
2012,10,17,01,16,1.60
2012,10,17,01,17,3.20
2012,10,17,01,18,1.60
2012,10,17,01,19,3.20
2012,10,17,01,20,1.60
2012,10,17,01,21,4.80
2012,10,17,01,22,4.80
2012,10,17,01,23,4.80
2012,10,17,01,24,4.80
2012,10,17,01,25,4.80
2012,10,17,01,26,1.60
2012,10,17,01,27,4.80
2012,10,17,01,28,1.60
2012,10,17,01,32,1.60
2012,10,17,01,33,3.20
2012,10,17,01,34,1.60
2012,10,17,01,35,1.60
2012,10,17,01,36,3.20
2012,10,17,01,37,4.80
2012,10,17,01,38,1.60
2012,10,17,01,39,3.20
2012,10,17,01,40,3.20
2012,10,17,01,41,3.20
2012,10,17,01,42,3.20
2012,10,17,01,43,1.60
2012,10,17,01,44,1.60
2012,10,17,01,45,3.20
2012,10,17,01,46,3.20
2012,10,17,01,47,3.20
2012,10,17,01,50,1.60
2012,10,17,01,51,3.20
2012,10,17,01,52,1.60
2012,10,17,01,55,3.20
2012,10,17,01,56,3.20
2012,10,17,01,58,1.60
2012,10,17,01,59,4.80
2012,10,17,02,00,3.20
2012,10,17,02,02,3.20
2012,10,17,02,03,3.20
2012,10,17,02,05,3.20
2012,10,17,02,06,1.60
2012,10,17,02,07,1.60
2012,10,17,02,08,4.80
2012,10,17,02,09,4.80
2012,10,17,02,10,3.20
2012,10,17,02,11,1.60
2012,10,17,02,12,4.80
2012,10,17,02,13,1.60
2012,10,17,02,14,4.80
2012,10,17,02,15,3.20
2012,10,17,02,16,1.60
2012,10,17,02,17,3.20
2012,10,17,02,18,1.60
2012,10,17,02,22,1.60
2012,10,17,02,23,3.20
2012,10,17,02,24,1.60
2012,10,17,02,25,1.60
2012,10,17,02,26,1.60
2012,10,17,02,27,3.20
2012,10,17,02,28,1.60
2012,10,17,02,35,1.60
2012,10,17,02,36,4.80
2012,10,17,02,37,1.60
2012,10,17,02,39,1.60
2012,10,17,02,40,3.20
2012,10,17,02,41,3.20
2012,10,17,02,42,1.60
2012,10,17,02,43,1.60
2012,10,17,02,44,1.60
2012,10,17,02,45,3.20
2012,10,17,02,46,3.20
2012,10,17,02,47,1.60
2012,10,17,02,48,3.20
2012,10,17,02,52,3.20
2012,10,17,03,02,3.20
2012,10,17,03,03,1.60
2012,10,17,03,05,3.20
2012,10,17,03,06,1.60
2012,10,17,03,07,3.20
2012,10,17,03,08,3.20
2012,10,17,03,09,3.20
2012,10,17,03,10,1.60
2012,10,17,03,13,1.60
2012,10,17,03,14,3.20
2012,10,17,03,15,3.20
2012,10,17,03,16,1.60
2012,10,17,03,19,1.60
2012,10,17,03,21,3.20
2012,10,17,03,23,1.60
2012,10,17,03,24,1.60
2012,10,17,03,30,1.60
2012,10,17,03,31,1.60
2012,10,17,03,41,1.60
2012,10,17,03,59,1.60
2012,10,17,04,00,4.80
2012,10,17,04,01,1.60
2012,10,17,04,02,3.20
2012,10,17,04,03,1.60
2012,10,17,04,09,1.60
2012,10,17,04,10,4.80
2012,10,17,04,11,4.80
2012,10,17,04,13,1.60
2012,10,17,04,15,3.20
2012,10,17,04,16,1.60
2012,10,17,04,27,1.60
2012,10,17,04,34,1.60
2012,10,17,04,35,1.60
2012,10,17,04,36,3.20
2012,10,17,04,37,4.80
2012,10,17,04,38,3.20
2012,10,17,04,39,3.20
2012,10,17,04,40,1.60
2012,10,17,04,41,1.60
2012,10,17,04,43,3.20
2012,10,17,04,46,1.60
2012,10,17,04,49,1.60
2012,10,17,04,50,3.20
2012,10,17,04,51,3.20
2012,10,17,04,52,4.80
2012,10,17,04,59,4.80
2012,10,17,05,00,1.60
2012,10,17,05,02,1.60
2012,10,17,05,03,1.60
2012,10,17,05,04,1.60
2012,10,17,05,05,3.20
2012,10,17,05,06,1.60
2012,10,17,05,20,3.20
2012,10,17,05,21,3.20
2012,10,17,05,22,1.60
2012,10,17,05,23,1.60
2012,10,17,05,24,1.60
2012,10,17,05,29,1.60
2012,10,17,05,30,3.20
2012,10,17,05,31,3.20
2012,10,17,05,32,1.60
2012,10,17,05,35,1.60
2012,10,17,05,52,3.20
2012,10,17,05,53,1.60
2012,10,17,05,54,3.20
2012,10,17,05,55,3.20
2012,10,17,05,56,3.20
2012,10,17,05,57,3.20
2012,10,17,05,59,1.60
2012,10,17,06,00,3.20
2012,10,17,06,01,3.20
2012,10,17,06,02,3.20
2012,10,17,06,03,3.20
2012,10,17,06,04,1.60
2012,10,17,06,05,3.20
2012,10,17,06,06,3.20
2012,10,17,06,07,3.20
2012,10,17,06,08,3.20
2012,10,17,06,09,3.20
2012,10,17,06,10,3.20
2012,10,17,06,11,1.60
2012,10,17,06,12,1.60
2012,10,17,06,13,3.20
2012,10,17,06,14,3.20
2012,10,17,06,15,1.60
2012,10,17,06,16,1.60
2012,10,17,06,18,1.60
2012,10,17,06,19,3.20
2012,10,17,06,32,1.60
2012,10,17,06,33,3.20
2012,10,17,06,34,1.60
2012,10,17,06,42,3.20
2012,10,17,06,43,3.20
2012,10,17,06,44,3.20
2012,10,17,06,45,3.20
2012,10,17,06,46,3.20
2012,10,17,06,49,3.20
2012,10,17,06,50,3.20
2012,10,17,06,51,4.80
2012,10,17,06,52,3.20
2012,10,17,06,53,1.60
2012,10,17,06,55,1.60
2012,10,17,06,56,1.60
2012,10,17,06,57,3.20
2012,10,17,06,58,3.20
2012,10,17,06,59,3.20
2012,10,17,07,00,1.60
2012,10,17,07,01,3.20
2012,10,17,07,02,1.60
2012,10,17,07,03,3.20
2012,10,17,07,04,3.20
2012,10,17,07,05,4.80
2012,10,17,07,06,1.60
2012,10,17,07,07,4.80
2012,10,17,07,08,3.20
2012,10,17,07,09,3.20
2012,10,17,07,10,1.60
2012,10,17,07,11,1.60
2012,10,17,07,17,1.60
2012,10,17,07,20,3.20
2012,10,17,07,21,3.20
2012,10,17,07,22,3.20
2012,10,17,07,23,3.20
2012,10,17,07,24,3.20
2012,10,17,07,25,3.20
2012,10,17,07,26,3.20
2012,10,17,07,27,4.80
2012,10,17,07,28,4.80
2012,10,17,07,29,3.20
2012,10,17,07,30,3.20
2012,10,17,07,31,3.20
2012,10,17,07,32,3.20
2012,10,17,07,33,3.20
2012,10,17,07,34,4.80
2012,10,17,07,35,3.20
2012,10,17,07,43,3.20
2012,10,17,07,44,3.20
2012,10,17,07,45,1.60
2012,10,17,07,46,3.20
2012,10,17,07,47,1.60
2012,10,17,07,48,1.60
2012,10,17,07,49,3.20
2012,10,17,07,50,1.60
2012,10,17,07,55,3.20
2012,10,17,07,56,3.20
2012,10,17,07,57,3.20
2012,10,17,07,58,3.20
2012,10,17,07,59,1.60
2012,10,17,08,00,1.60
2012,10,17,08,01,3.20
2012,10,17,08,02,3.20
2012,10,17,08,03,1.60
2012,10,17,08,04,1.60
2012,10,17,08,05,3.20
2012,10,17,08,06,3.20
2012,10,17,08,07,3.20
2012,10,17,08,08,3.20
2012,10,17,08,09,3.20
2012,10,17,08,10,1.60
2012,10,17,08,11,1.60
2012,10,17,08,12,1.60
2012,10,17,08,13,1.60
2012,10,17,08,33,1.60
2012,10,17,08,56,3.20
2012,10,17,08,57,1.60
2012,10,17,09,03,1.60
2012,10,17,09,04,3.20
2012,10,17,09,05,1.60
2012,10,17,09,10,1.60
2012,10,17,09,11,1.60
2012,10,17,09,12,3.20
2012,10,17,09,13,3.20
2012,10,17,09,14,4.80
2012,10,17,09,15,4.80
2012,10,17,09,16,4.80
2012,10,17,09,17,6.40
2012,10,17,09,18,4.80
2012,10,17,09,19,4.80
2012,10,17,09,20,4.80
2012,10,17,09,21,3.20
2012,10,17,09,22,3.20
2012,10,17,09,23,1.60
2012,10,17,09,25,1.60
2012,10,17,09,26,3.20
2012,10,17,09,27,1.60
2012,10,17,09,28,3.20
2012,10,17,09,29,1.60
2012,10,17,09,30,3.20
2012,10,17,09,31,3.20
2012,10,17,09,32,1.60
2012,10,17,09,33,1.60
2012,10,17,09,38,3.20
2012,10,17,09,39,3.20
2012,10,17,09,40,4.80
2012,10,17,09,41,4.80
2012,10,17,09,42,3.20
2012,10,17,09,43,4.80
2012,10,17,09,44,4.80
2012,10,17,09,52,1.60
2012,10,17,09,53,1.60
2012,10,17,09,54,3.20
2012,10,17,09,55,4.80
2012,10,17,09,56,3.20
2012,10,17,09,57,8.10
2012,10,17,09,58,8.10
2012,10,17,09,59,6.40
2012,10,17,10,00,4.80
2012,10,17,10,01,6.40
2012,10,17,10,02,4.80
2012,10,17,10,03,4.80
2012,10,17,10,04,3.20
2012,10,17,10,05,4.80
2012,10,17,10,06,4.80
2012,10,17,10,07,4.80
2012,10,17,10,08,6.40
2012,10,17,10,09,4.80
2012,10,17,10,10,6.40
2012,10,17,10,11,4.80
2012,10,17,10,12,4.80
2012,10,17,10,13,4.80
2012,10,17,10,14,4.80
2012,10,17,10,15,4.80
2012,10,17,10,16,1.60
2012,10,17,10,17,1.60
2012,10,17,10,18,3.20
2012,10,17,10,19,3.20
2012,10,17,10,20,3.20
2012,10,17,10,21,1.60
2012,10,17,10,22,3.20
2012,10,17,10,23,3.20
2012,10,17,10,24,4.80
2012,10,17,10,25,4.80
2012,10,17,10,26,4.80
2012,10,17,10,27,3.20
2012,10,17,10,28,1.60
2012,10,17,10,29,6.40
2012,10,17,10,30,6.40
2012,10,17,10,31,4.80
2012,10,17,10,32,3.20
2012,10,17,10,33,6.40
2012,10,17,10,34,6.40
2012,10,17,10,35,6.40
2012,10,17,10,36,8.10
2012,10,17,10,37,3.20
2012,10,17,10,38,4.80
2012,10,17,10,39,4.80
2012,10,17,10,40,3.20
2012,10,17,10,41,4.80
2012,10,17,10,42,4.80
2012,10,17,10,43,4.80
2012,10,17,10,44,6.40
2012,10,17,10,45,6.40
2012,10,17,10,46,4.80
2012,10,17,10,47,6.40
2012,10,17,10,48,8.10
2012,10,17,10,49,4.80
2012,10,17,10,50,3.20
2012,10,17,10,51,4.80
2012,10,17,10,52,3.20
2012,10,17,10,53,3.20
2012,10,17,10,54,3.20
2012,10,17,10,55,4.80
2012,10,17,10,56,6.40
2012,10,17,10,57,4.80
2012,10,17,10,58,4.80
2012,10,17,10,59,1.60
2012,10,17,11,00,1.60
2012,10,17,11,01,8.10
2012,10,17,11,02,9.60
2012,10,17,11,03,4.80
2012,10,17,11,04,8.10
2012,10,17,11,05,8.10
2012,10,17,11,06,9.60
2012,10,17,11,07,6.40
2012,10,17,11,08,8.10
2012,10,17,11,09,8.10
2012,10,17,11,10,8.10
2012,10,17,11,11,4.80
2012,10,17,11,12,4.80
2012,10,17,11,13,8.10
2012,10,17,11,14,4.80
2012,10,17,11,15,6.40
2012,10,17,11,16,4.80
2012,10,17,11,17,4.80
2012,10,17,11,18,6.40
2012,10,17,11,19,6.40
2012,10,17,11,20,6.40
2012,10,17,11,21,1.60
2012,10,17,11,22,4.80
2012,10,17,11,23,3.20
2012,10,17,11,24,1.60
2012,10,17,11,25,3.20
2012,10,17,11,26,3.20
2012,10,17,11,27,4.80
2012,10,17,11,28,4.80
2012,10,17,11,29,3.20
2012,10,17,11,30,3.20
2012,10,17,11,31,3.20
2012,10,17,11,35,1.60
2012,10,17,11,36,1.60
2012,10,17,11,40,3.20
2012,10,17,11,41,3.20
2012,10,17,11,42,3.20
2012,10,17,11,43,3.20
2012,10,17,11,44,1.60
2012,10,17,11,45,1.60
2012,10,17,11,46,4.80
2012,10,17,11,47,6.40
2012,10,17,11,48,4.80
2012,10,17,11,49,3.20
2012,10,17,11,50,4.80
2012,10,17,11,51,4.80
2012,10,17,11,52,4.80
2012,10,17,11,53,3.20
2012,10,17,11,54,3.20
2012,10,17,11,55,4.80
2012,10,17,11,56,6.40
2012,10,17,11,57,6.40
2012,10,17,11,58,4.80
2012,10,17,11,59,4.80
2012,10,17,12,00,4.80
2012,10,17,12,01,4.80
2012,10,17,12,02,6.40
2012,10,17,12,03,4.80
2012,10,17,12,04,4.80
2012,10,17,12,05,6.40
2012,10,17,12,06,4.80
2012,10,17,12,07,4.80
2012,10,17,12,08,4.80
2012,10,17,12,09,4.80
2012,10,17,12,10,4.80
2012,10,17,12,11,3.20
2012,10,17,12,12,6.40
2012,10,17,12,13,6.40
2012,10,17,12,14,4.80
2012,10,17,12,15,6.40
2012,10,17,12,16,4.80
2012,10,17,12,17,6.40
2012,10,17,12,18,4.80
2012,10,17,12,19,6.40
2012,10,17,12,20,4.80
2012,10,17,12,21,4.80
2012,10,17,12,22,6.40
2012,10,17,12,23,6.40
2012,10,17,12,24,4.80
2012,10,17,12,25,6.40
2012,10,17,12,26,3.20
2012,10,17,12,27,3.20
2012,10,17,12,28,3.20
2012,10,17,12,29,4.80
2012,10,17,12,30,6.40
2012,10,17,12,31,8.10
2012,10,17,12,32,6.40
2012,10,17,12,33,4.80
2012,10,17,12,34,8.10
2012,10,17,12,35,6.40
2012,10,17,12,36,4.80
2012,10,17,12,37,4.80
2012,10,17,12,38,4.80
2012,10,17,12,39,4.80
2012,10,17,12,40,6.40
2012,10,17,12,41,4.80
2012,10,17,12,42,4.80
2012,10,17,12,43,4.80
2012,10,17,12,44,4.80
2012,10,17,12,45,6.40
2012,10,17,12,46,4.80
2012,10,17,12,47,6.40
2012,10,17,12,48,4.80
2012,10,17,12,49,3.20
2012,10,17,12,50,4.80
2012,10,17,12,51,6.40
2012,10,17,12,52,4.80
2012,10,17,12,53,6.40
2012,10,17,12,54,4.80
2012,10,17,12,55,6.40
2012,10,17,12,56,4.80
2012,10,17,12,57,4.80
2012,10,17,12,58,6.40
2012,10,17,12,59,4.80
2012,10,17,13,00,4.80
2012,10,17,13,01,4.80
2012,10,17,13,02,4.80
2012,10,17,13,03,3.20
2012,10,17,13,04,3.20
2012,10,17,13,05,3.20
2012,10,17,13,06,3.20
2012,10,17,13,07,3.20
2012,10,17,13,08,3.20
2012,10,17,13,09,3.20
2012,10,17,13,10,3.20
2012,10,17,13,11,3.20
2012,10,17,13,12,4.80
2012,10,17,13,13,3.20
2012,10,17,13,14,1.60
2012,10,17,13,15,3.20
2012,10,17,13,16,3.20
2012,10,17,13,17,3.20
2012,10,17,13,18,4.80
2012,10,17,13,19,4.80
2012,10,17,13,20,4.80
2012,10,17,13,21,6.40
2012,10,17,13,22,6.40
2012,10,17,13,23,1.60
2012,10,17,13,24,3.20
2012,10,17,13,25,1.60
2012,10,17,13,26,3.20
2012,10,17,13,27,1.60
2012,10,17,13,28,3.20
2012,10,17,13,29,6.40
2012,10,17,13,30,4.80
2012,10,17,13,31,4.80
2012,10,17,13,32,4.80
2012,10,17,13,33,4.80
2012,10,17,13,34,4.80
2012,10,17,13,35,3.20
2012,10,17,13,36,4.80
2012,10,17,13,37,8.10
2012,10,17,13,38,6.40
2012,10,17,13,39,3.20
2012,10,17,13,40,6.40
2012,10,17,13,41,6.40
2012,10,17,13,42,6.40
2012,10,17,13,43,8.10
2012,10,17,13,44,6.40
2012,10,17,13,45,6.40
2012,10,17,13,46,4.80
2012,10,17,13,47,6.40
2012,10,17,13,48,3.20
2012,10,17,13,49,9.60
2012,10,17,13,50,8.10
2012,10,17,13,51,6.40
2012,10,17,13,52,9.60
2012,10,17,13,53,6.40
2012,10,17,13,54,9.60
2012,10,17,13,55,8.10
2012,10,17,13,56,4.80
2012,10,17,13,57,4.80
2012,10,17,13,58,8.10
2012,10,17,13,59,11.30
2012,10,17,14,00,9.60
2012,10,17,14,01,9.60
2012,10,17,14,02,6.40
2012,10,17,14,03,8.10
2012,10,17,14,04,9.60
2012,10,17,14,05,8.10
2012,10,17,14,06,9.60
2012,10,17,14,07,8.10
2012,10,17,14,08,8.10
2012,10,17,14,09,8.10
2012,10,17,14,10,16.10
2012,10,17,14,11,8.10
2012,10,17,14,12,8.10
2012,10,17,14,13,4.80
2012,10,17,14,14,9.60
2012,10,17,14,15,8.10
2012,10,17,14,16,8.10
2012,10,17,14,17,6.40
2012,10,17,14,18,8.10
2012,10,17,14,19,8.10
2012,10,17,14,20,4.80
2012,10,17,14,21,8.10
2012,10,17,14,22,8.10
2012,10,17,14,23,8.10
2012,10,17,14,24,8.10
2012,10,17,14,25,9.60
2012,10,17,14,26,9.60
2012,10,17,14,27,11.30
2012,10,17,14,28,8.10
2012,10,17,14,29,9.60
2012,10,17,14,30,12.90
2012,10,17,14,31,16.10
2012,10,17,14,32,14.50
2012,10,17,14,33,9.60
2012,10,17,14,34,11.30
2012,10,17,14,35,6.40
2012,10,17,14,36,6.40
2012,10,17,14,37,8.10
2012,10,17,14,38,16.10
2012,10,17,14,39,16.10
2012,10,17,14,40,9.60
2012,10,17,14,41,11.30
2012,10,17,14,42,8.10
2012,10,17,14,43,8.10
2012,10,17,14,44,9.60
2012,10,17,14,45,6.40
2012,10,17,14,46,11.30
2012,10,17,14,47,11.30
2012,10,17,14,48,14.50
2012,10,17,14,49,14.50
2012,10,17,14,50,8.10
2012,10,17,14,51,6.40
2012,10,17,14,52,9.60
2012,10,17,14,53,8.10
2012,10,17,14,54,8.10
2012,10,17,14,55,6.40
2012,10,17,14,56,6.40
2012,10,17,14,57,9.60
2012,10,17,14,58,8.10
2012,10,17,14,59,6.40
2012,10,17,15,00,9.60
2012,10,17,15,01,8.10
2012,10,17,15,02,8.10
2012,10,17,15,03,9.60
2012,10,17,15,04,8.10
2012,10,17,15,05,11.30
2012,10,17,15,06,8.10
2012,10,17,15,07,9.60
2012,10,17,15,08,11.30
2012,10,17,15,09,11.30
2012,10,17,15,10,9.60
2012,10,17,15,11,9.60
2012,10,17,15,12,9.60
2012,10,17,15,13,11.30
2012,10,17,15,14,6.40
2012,10,17,15,15,8.10
2012,10,17,15,16,9.60
2012,10,17,15,17,6.40
2012,10,17,15,18,6.40
2012,10,17,15,19,11.30
2012,10,17,15,20,6.40
2012,10,17,15,21,6.40
2012,10,17,15,22,6.40
2012,10,17,15,23,6.40
2012,10,17,15,24,6.40
2012,10,17,15,25,8.10
2012,10,17,15,26,6.40
2012,10,17,15,27,6.40
2012,10,17,15,28,14.50
2012,10,17,15,29,8.10
2012,10,17,15,30,6.40
2012,10,17,15,31,9.60
2012,10,17,15,32,8.10
2012,10,17,15,33,9.60
2012,10,17,15,34,8.10
2012,10,17,15,35,6.40
2012,10,17,15,36,4.80
2012,10,17,15,37,3.20
2012,10,17,15,38,6.40
2012,10,17,15,39,8.10
2012,10,17,15,40,6.40
2012,10,17,15,41,6.40
2012,10,17,15,42,4.80
2012,10,17,15,43,6.40
2012,10,17,15,44,8.10
2012,10,17,15,45,6.40
2012,10,17,15,46,4.80
2012,10,17,15,47,8.10
2012,10,17,15,48,6.40
2012,10,17,15,49,6.40
2012,10,17,15,50,6.40
2012,10,17,15,51,6.40
2012,10,17,15,52,4.80
2012,10,17,15,53,4.80
2012,10,17,15,54,4.80
2012,10,17,15,55,4.80
2012,10,17,15,56,4.80
2012,10,17,15,57,3.20
2012,10,17,15,58,4.80
2012,10,17,15,59,6.40
2012,10,17,16,00,8.10
2012,10,17,16,01,6.40
2012,10,17,16,02,11.30
2012,10,17,16,03,8.10
2012,10,17,16,04,4.80
2012,10,17,16,05,6.40
2012,10,17,16,06,6.40
2012,10,17,16,07,6.40
2012,10,17,16,08,8.10
2012,10,17,16,09,6.40
2012,10,17,16,10,11.30
2012,10,17,16,11,8.10
2012,10,17,16,12,6.40
2012,10,17,16,13,4.80
2012,10,17,16,14,6.40
2012,10,17,16,15,6.40
2012,10,17,16,16,3.20
2012,10,17,16,17,4.80
2012,10,17,16,18,4.80
2012,10,17,16,19,4.80
2012,10,17,16,20,4.80
2012,10,17,16,21,4.80
2012,10,17,16,22,8.10
2012,10,17,16,23,6.40
2012,10,17,16,24,6.40
2012,10,17,16,25,8.10
2012,10,17,16,26,6.40
2012,10,17,16,27,6.40
2012,10,17,16,28,8.10
2012,10,17,16,29,4.80
2012,10,17,16,30,6.40
2012,10,17,16,31,4.80
2012,10,17,16,32,4.80
2012,10,17,16,33,8.10
2012,10,17,16,34,4.80
2012,10,17,16,35,6.40
2012,10,17,16,36,6.40
2012,10,17,16,37,4.80
2012,10,17,16,38,1.60
2012,10,17,16,39,4.80
2012,10,17,16,40,3.20
2012,10,17,16,41,1.60
2012,10,17,16,42,3.20
2012,10,17,16,43,3.20
2012,10,17,16,44,3.20
2012,10,17,16,45,3.20
2012,10,17,16,46,3.20
2012,10,17,16,47,3.20
2012,10,17,16,48,4.80
2012,10,17,16,49,8.10
2012,10,17,16,50,4.80
2012,10,17,16,51,4.80
2012,10,17,16,52,3.20
2012,10,17,16,53,1.60
2012,10,17,16,54,6.40
2012,10,17,16,55,6.40
2012,10,17,16,56,3.20
2012,10,17,16,57,3.20
2012,10,17,16,58,3.20
2012,10,17,16,59,4.80
2012,10,17,17,00,1.60
2012,10,17,17,01,4.80
2012,10,17,17,02,1.60
2012,10,17,17,03,1.60
2012,10,17,17,04,4.80
2012,10,17,17,05,1.60
2012,10,17,17,07,1.60
2012,10,17,17,08,3.20
2012,10,17,17,09,4.80
2012,10,17,17,10,1.60
2012,10,17,17,12,1.60
2012,10,17,17,13,1.60
2012,10,17,17,14,3.20
2012,10,17,17,15,4.80
2012,10,17,17,16,3.20
2012,10,17,17,17,3.20
2012,10,17,17,18,1.60
2012,10,17,17,19,1.60
2012,10,17,17,20,3.20
2012,10,17,17,21,1.60
2012,10,17,17,24,3.20
2012,10,17,17,25,3.20
2012,10,17,17,47,1.60
2012,10,17,17,48,1.60
2012,10,17,17,53,1.60
2012,10,17,18,11,3.20
2012,10,17,18,12,3.20
2012,10,17,18,13,1.60
2012,10,17,18,14,1.60
2012,10,17,18,15,1.60
2012,10,17,18,18,3.20
2012,10,17,18,19,1.60
2012,10,17,18,20,3.20
2012,10,17,18,21,3.20
2012,10,17,18,22,4.80
2012,10,17,18,24,1.60
2012,10,17,18,25,4.80
2012,10,17,18,26,6.40
2012,10,17,18,27,3.20
2012,10,17,18,28,3.20
2012,10,17,18,29,4.80
2012,10,17,18,30,1.60
2012,10,17,18,31,4.80
2012,10,17,18,32,3.20
2012,10,17,18,33,1.60
2012,10,17,18,34,3.20
2012,10,17,18,35,3.20
2012,10,17,18,36,1.60
2012,10,17,18,37,3.20
2012,10,17,18,38,1.60
2012,10,17,18,39,3.20
2012,10,17,18,40,1.60
2012,10,17,18,41,3.20
2012,10,17,18,42,1.60
2012,10,17,18,43,1.60
2012,10,17,18,46,1.60
2012,10,17,18,47,3.20
2012,10,17,18,48,3.20
2012,10,17,18,49,1.60
2012,10,17,18,50,3.20
2012,10,17,18,51,3.20
2012,10,17,18,52,1.60
2012,10,17,18,53,1.60
2012,10,17,18,54,1.60
2012,10,17,18,55,3.20
2012,10,17,18,56,3.20
2012,10,17,18,57,1.60
2012,10,17,18,58,1.60
2012,10,17,19,06,1.60
2012,10,17,19,07,1.60
2012,10,17,19,08,1.60
2012,10,17,19,09,1.60
2012,10,17,19,19,1.60
2012,10,17,19,24,3.20
2012,10,17,19,25,3.20
2012,10,17,19,26,3.20
2012,10,17,19,27,1.60
2012,10,17,19,28,1.60
2012,10,17,19,29,4.80
2012,10,17,19,30,4.80
2012,10,17,19,31,3.20
2012,10,17,19,53,3.20
2012,10,17,19,59,1.60
2012,10,17,20,00,1.60
2012,10,17,20,06,3.20
2012,10,17,20,07,3.20
2012,10,17,20,08,1.60
2012,10,17,20,21,1.60
2012,10,17,20,22,3.20
2012,10,17,20,23,1.60
2012,10,17,20,24,3.20
2012,10,17,20,34,1.60
2012,10,17,20,35,1.60
2012,10,17,20,36,1.60
2012,10,17,20,37,1.60
2012,10,17,21,26,1.60
2012,10,17,21,57,1.60
2012,10,17,22,12,1.60
2012,10,17,22,15,3.20
2012,10,17,22,16,1.60
2012,10,17,22,17,3.20
2012,10,17,22,23,1.60
2012,10,17,22,35,3.20
2012,10,17,22,36,3.20
2012,10,17,22,39,1.60
2012,10,17,22,40,1.60
2012,10,17,22,51,1.60
2012,10,17,23,05,1.60
2012,10,17,23,46,1.60
2012,10,17,23,47,1.60
2012,10,17,23,55,1.60
2012,10,17,23,56,1.60
2012,10,17,23,57,3.20
2012,10,17,23,58,3.20
2012,10,17,23,59,3.20
